Regional Weather Roundup
Issued by NWS

Home | Current Version | Previous Version | Text Only | Print | Product List | Glossary Off
Versions: 1 2 3 4 5 6 7 8 9 10 11 12 13 14 15 16 17 18 19 20 21 22 23 24 25 26 27 28 29 30 31 32 33 34 35 36 37 38 39 40 41 42 43 44 45 46 47 48 49 50

000
ASUS43 KLOT 122300
RWRIL

ILLINOIS REGIONAL WEATHER ROUNDUP
NATIONAL WEATHER SERVICE CHICAGO/ROMEOVILLE IL
600 PM CDT SAT JUL 12 2014

NOTE: "FAIR" INDICATES FEW OR NO CLOUDS BELOW 12,000 FEET WITH NO
SIGNIFICANT WEATHER AND/OR OBSTRUCTIONS TO VISIBILITY.

* THESE STATIONS ARE NOT UNDER NWS QUALITY CONTROL. THEY ALSO MAY NOT
  REPORT WEATHER SUCH AS PRECIPITATION OR FOG.

ILZ001-002-007-009-015-016-024-130000-
NORTHWEST ILLINOIS

CITY           SKY/WX    TMP DP  RH WIND       PRES   REMARKS
MOLINE         PTSUNNY   85  74  69 SW6       29.90F HX  92
STERLING*      CLOUDY    81  75  83 CALM      29.93F HX  86
$$

ILZ003-004-008-010-011-017-018-130000-
NORTH CENTRAL ILLINOIS

CITY           SKY/WX    TMP DP  RH WIND       PRES   REMARKS
ROCKFORD       CLOUDY    80  70  71 S5        29.95F HX  83
FREEPORT*      PTSUNNY   78  73  85 S7        29.96F HX  81
$$

ILZ005-006-012>014-019>023-130000-
NORTHEAST ILLINOIS

CITY           SKY/WX    TMP DP  RH WIND       PRES   REMARKS
CHICAGO-OHARE  CLOUDY    79  70  74 SW10      29.95S HX  82
CHICAGO-MIDWAY CLOUDY    80  74  81 SW10      29.95S HX  85
AURORA         CLOUDY    80  73  79 SW5       29.95F HX  84
LANSING*       CLOUDY    77  71  81 SW10G16   29.96F
WAUKEGAN       CLOUDY    79  69  71 SW5       29.94S HX  81
DUPAGE AIRPORT CLOUDY    80  73  79 SW9       29.95F HX  84
WHEELING       CLOUDY    81  71  71 SW8       29.95F HX  85
NORTHERLY ISL    N/A     79  70  74 SW7         N/A  HX  82
$$

LMZ740>746-130000-
SOUTHERN LAKE MICHIGAN

STATION/POSITION SKY/WX   TEMP    WIND        PRES    VSBY  WAVE
                          AIR SEA DIR/SP/G                  HT/PER
                          (F)     (DEG/KT/KT) (MB)    (MI)  (FT/S)
SOUTHERN BUOY              63 61  150/  8/  8 1014.6F         1/ 4
WAUKEGAN HARBOR            79     240/ 10/ 15 1014.9S
HARRISON CRIB              76     210/ 13/ 20   N/A
BURNHAM HARBOR             79     210/  6/ 13   N/A
CALUMET HARBOR             78     200/  8/ 14 1015.1F
BURNS HARBOR               77     200/ 12/ 19 1015.2S
MICHIGAN CITY              77     180/ 11/ 15   N/A
$$

ILZ025>027-034>036-040-047-049-050-058-095>099-130000-
WEST-CENTRAL ILLINOIS

CITY           SKY/WX    TMP DP  RH WIND       PRES   REMARKS
QUINCY         MOSUNNY   88  72  58 SW13      29.97F HX  94
GALESBURG*     PTSUNNY   85  75  72 S12G17    29.93F HX  94
MACOMB*        MOSUNNY   87  74  66 SW14      29.96F HX  94
$$

ILZ028>032-037-038-041>044-048-051>054-059>061-130000-
CENTRAL ILLINOIS

CITY           SKY/WX    TMP DP  RH WIND       PRES   REMARKS
DECATUR        MOSUNNY   87  75  67 SW14      30.01F HX  96
PEORIA         MOSUNNY   87  74  64 S14       29.95F HX  95
SPRINGFIELD    MOSUNNY   89  74  60 SW12      29.99F HX  98
TAYLORVILLE    NOT AVBL
$$

ILZ033-039-045-046-055>057-062-063-130000-
EAST-CENTRAL ILLINOIS

CITY           SKY/WX    TMP DP  RH WIND       PRES   REMARKS
CHAMPAIGN      PTSUNNY   83  76  79 S15       30.01F HX  91
MATTOON        PTSUNNY   84  76  76 S8        30.02F HX  93
$$

ILZ079-100>102-130000-
SOUTHWEST ILLINOIS

CITY           SKY/WX    TMP DP  RH WIND       PRES   REMARKS
CAHOKIA*       SUNNY     92  70  48 S5        30.01F HX  97
SPARTA*        MOSUNNY   82  73  74 S8        30.06F HX  88
$$

ILZ064>066-069>071-074>076-080>082-084>086-088>090-092>094-130000-
SOUTH-CENTRAL ILLINOIS

CITY           SKY/WX    TMP DP  RH WIND       PRES   REMARKS
CARBONDALE     PTSUNNY   87  74  64 S6        30.05F HX  95
MARION         PTSUNNY   88  75  66 S14       30.07F HX  97
MT. VERNON     MOSUNNY   90  75  62 S12       30.05F HX 100
SALEM*         SUNNY     92  76  59 S10G16    30.03F HX 103
$$

ILZ067-068-072-073-078-083-087-091-130000-
SOUTHEAST ILLINOIS

CITY           SKY/WX    TMP DP  RH WIND       PRES   REMARKS
FLORA*         MOSUNNY   87  74  64 S15       30.04F HX  96
HARRISBURG*    MOSUNNY   85  74  68 S9        30.07F HX  92
ROBINSON*      PTSUNNY   85  76  74 S9        30.06F HX  94
$$

ABBREVIATIONS USED IN REMARKS
   TC - TEMPERATURE IN CELSIUS
  WCI - WIND CHILL INDEX
   HX - HEAT INDEX
  VSB - VISIBILITY
$$




USA.gov is the U.S. government's official web portal to all federal, state and local government web resources and services.